User: anonymous   Login
Location: Unspecified
(0.0000°N, 0.0000°E)
Time: 00:01:58
(UTC+00:00)
Language:

STARLINK-2732 - Orbit

View from above orbital plane
View from above orbital plane
View from above satellite
View from above satellite

Ground track
Ground track

The orbit is defined by the following mean orbital elements,

1 48646U          26145.21814215 +.00000000 +00000-0 +81071-5 0 00005
2 48646  53.1577 117.9480 0001238  95.9256 264.1887 15.31701722    03
Epoch (UTC): 25 May 2026 05:14:07
Eccentricity: 0.0001238
inclination: 53.1577°
perigee height: 470 km
apogee height: 472 km
right ascension of ascending node: 117.9480°
argument of perigee: 95.9256°
revolutions per day: 15.31701722
mean anomaly at epoch: 264.1887°

The dashed part of the orbit path shows where the satellite is in the earth's shadow,  

DLR